Find Starlink 36862

NORAD ID: 68003 Int'l Des: 2026-039 Owner: SPXS Country: US Constellation: starlink operational
LEOCIRCULAR

Live-Position

3D-Globus wird geladen...

Über Starlink 36862

Beschreibung wird geladen...

Nächste Überflüge

Passes for default location (London). Set your location on the main map for personalized predictions.

Höhenverlauf

Loading altitude history...

Zweizeiliger Elementsatz

1 68003U 26039T 26105.59698610 .00013069 00000-0 47121-3 0 9992
2 68003 43.0015 200.8642 0001799 266.5740 93.4907 15.28433487 7341
Epoch: 15. Apr. 2026 • Age: 18 hours

Aktueller Status

Höhe 492.3 km
Geschwindigkeit 7.62 km/s
Subsatellitenpunkt -42.49°S, 118.88°E
Startdatum 27. Feb. 2026
Alter 0.1 years
Typ internet

Technische Details

Klassifizierung Payload
Masse 575.00 kg
Trockenmasse 530.00 kg
Gesamtmasse 575.00 kg
Länge 0.30 m
Durchmesser 4.10 m
Spannweite 29.00 m
Form Box + pan
Hersteller SPXS
Bus-Typ Starlink V2MO
Phasenstatus In Orbit
Besitzer/Staat SPXS/US

Most Searched